Flag for Falkland Islands Weather past 2 weeks in Stanley, Falkland Islands

Now
30 °F

Snow showers. Partly cloudy.


Feels Like: 19 °F
Forecast: N/A
Wind: 16 mph from Southwest

Location: Mount Pleasant Airport

Current Time: May 25, 2015 at 7:46:47 PM

Latest Report: May 25, 2015 at 6:50 PM


Visibility: 1 mi

Pressure: 29.45 "Hg

Humidity: 93%

Dew point: 28 °F

Location of StanleyLocation

Historic Weather in Stanley — Graph

°F

Stanley temperature yesterday

Maximum temperature yesterday: 36 °F (at 12:50 AM)
Minimum temperature yesterday: 30 °F (at 8:50 PM)
Average temperature yesterday: 33 °F

Past Weeks' High & Low Weather Summary

 TemperatureHumidityPressure
High54 °F (May 15, 12:50 PM)100% (May 11, 9:50 AM)30.33 "Hg (May 11, 9:50 AM)
Low28 °F (May 25, 5:50 AM)47% (May 18, 12:50 PM)28.74 "Hg (May 16, 7:50 PM)
Average44 °F84%29.36 "Hg
* Reported May 10 5:50 PM — May 25 5:50 PM, Stanley, Weather by CustomWeather, © 2015

Note: Actual official high and low records may vary slightly from our data, if they occured in-between our weather recording intervals... More about our weather records

Advertising

Stanley weather history for previous 24 hours

 ConditionsComfort  
Time TempWeatherWind HumidityBarometerVisibility
5:50 PM
Mon, May 25
30 °FSnow flurries. Passing clouds.28 mph93%29.39 "Hg2 mi
4:50 PM32 °FSnow showers. Partly sunny.28 mph80%29.33 "Hg1 mi
3:50 PM30 °FScattered showers. Partly sunny.28 mph93%29.30 "HgN/A
2:50 PM32 °FScattered showers. Partly sunny.17 mph87%29.24 "HgN/A
1:50 PM32 °FSnow showers. More clouds than sun.20 mph87%29.24 "Hg1 mi
12:50 PM32 °FSnow flurries. Partly sunny.15 mph93%29.21 "Hg5 mi
11:50 AM32 °FMixture of precip. Partly sunny.21 mph100%29.21 "HgN/A
10:50 AM32 °FPartly sunny.21 mph100%29.21 "HgN/A
9:50 AM32 °FPartly sunny.21 mph93%29.21 "HgN/A
8:50 AM28 °FPassing clouds.16 mph93%29.18 "HgN/A
7:50 AM28 °FPassing clouds.13 mph86%29.18 "HgN/A
6:50 AM28 °FPassing clouds.16 mph93%29.18 "HgN/A
5:50 AM28 °FPassing clouds.16 mph93%29.15 "HgN/A
4:50 AM30 °FPassing clouds.18 mph93%29.15 "HgN/A
3:50 AM30 °FPartly cloudy.15 mph93%29.15 "HgN/A
2:50 AM30 °FPassing clouds.15 mph100%29.15 "HgN/A
1:50 AM30 °FPassing clouds.10 mph93%29.15 "HgN/A
12:50 AM30 °FPartly cloudy.13 mph93%29.15 "HgN/A
11:50 PM
Sun, May 24
30 °FSnow flurries. Partly cloudy.13 mph93%29.15 "Hg2 mi
10:50 PM30 °FPartly cloudy.16 mph86%29.15 "HgN/A
9:50 PM32 °FSnow flurries. Partly cloudy.17 mph87%29.15 "Hg4 mi
8:50 PM30 °FSnow flurries. Partly cloudy.23 mph100%29.12 "Hg2 mi
7:50 PM34 °FSnow flurries. Partly cloudy.28 mph75%29.09 "Hg1 mi
Weather by CustomWeather, © 2015

See weather overviewHow to use our weather pages